ASTRA 5B (39617 NORAD) Tracking and Keplerian Element Data

This shows tracking and keplerian element data for the satellite.

Feedback or suggestion? Click here.




ElementValue
Catalog39617
NameASTRA 5B
Epoch Orbit1592
Epoch Day203.17063378
Epoch Year2018
RAAN298.1978
Inclination0.0623
Eccentricity0.0004099
Argument of Perigee185.9297
Mean Anonmoly268.628
Mean Motion1.00272152
Decay Rate1.41E-06
L11 39617U 14011B 18203.17063378 .00000141 00000-0 00000+0 0 9997
L22 39617 0.0623 298.1978 0004099 185.9297 268.6280 1.00272152 15925

Live tracking and technical data element details for ASTRA 5B (NORAD 39617). ASTRA 5B can be tracked NOW for your location showing map with azimuth and elevation plus other details from your city location.

Track the satellite on the map from your city or location and see movement details for azimuth, elevation, latitude, longitude, range, height, and movement on the map or in text.







IsCatalogInMostPopularTable: catalog: 39617, numindb: 61
Update: records affected: 1



GetName: 39617 ASTRA 5B

Hit Count: updated at: Mon, 23 Jul 2018 07:44:19 GMT